Regional Weather Roundup
Issued by NWS Kansas City/Pleasant Hill, MO

Home | Current Version | Previous Version | Graphics & Text | Print | Product List | Glossary Off
Versions: 1 2 3 4 5 6 7 8 9 10 11 12 13 14 15 16 17 18 19 20 21 22 23 24 25 26 27 28 29 30 31 32 33 34 35 36 37 38 39 40 41 42 43 44 45 46 47 48 49 50

000
ASUS43 KEAX 300710
RWREAX

WEATHER ROUNDUP FOR EASTERN KANSAS AND NORTHWEST MISSOURI
NATIONAL WEATHER SERVICE KANSAS CITY/PLEASANT HILL MO
200 AM CDT SAT MAY 30 2015

KSZ040-057-103>105-MOZ028-029-037-043-300800-
...KANSAS CITY METROPOLITAN AREA...

CITY           SKY/WX    TMP DP  RH WIND       PRES   REMARKS
K.C. INTL      CLOUDY    63  63 100 CALM      29.97S FOG
K.C. DOWNTOWN  CLOUDY    66  63  90 S3        29.96F
LEES SUMMIT    CLOUDY    63  61  93 SW3       29.97F
OLATHE - IXD   CLOUDY    63  63 100 SW5       29.98S
OLATHE - OJC   CLOUDY    63  63 100 CALM      29.97S
LAWRENCE       CLOUDY    64  63  96 CALM      29.98R

$$

MOZ001>008-011>017-020>025-030>033-038>040-044>046-053-054-300800-
...NORTHERN AND CENTRAL MISSOURI...

CITY           SKY/WX    TMP DP  RH WIND       PRES   REMARKS
ST. JOSEPH     CLOUDY    64  62  93 NW15      29.98F
MOSBY          CLOUDY    63  63 100 CALM      29.97S FOG
WARRENSBURG    FOG       61  61 100 CALM      29.96F VSB 3/4
WHITEMAN AFB   CLOUDY    66  66 100 E2        29.95F
CLINTON        CLOUDY    64  64 100 NE3       29.96F
SEDALIA        CLOUDY    67  64  90 CALM      29.97F
WARSAW         NOT AVBL
CHILLICOTHE      N/A     66  64  93 CALM      29.97F
MOBERLY        CLOUDY    66  63  88 SE3       29.98F
KIRKSVILLE     CLOUDY    66  65  96 SW3       29.98F

$$

MOZ041-047>049-056>058-063>065-088>090-097-300800-
...EASTERN AND SOUTHERN MISSOURI...

CITY           SKY/WX    TMP DP  RH WIND       PRES   REMARKS
ST. LOUIS INTL RAIN      72  66  83 E10       29.97F FOG
SPIRIT OF STL  CLOUDY    68  66  94 SE3       29.95F
COLUMBIA       LGT RAIN  66  65  96 N5        29.96F
JEFFERSON CITY LGT RAIN  68  66  93 CALM      29.95F
MEXICO         RAIN     N/A N/A N/A CALM      29.97F
ROLLA          LGT RAIN  65  64  97 S6        29.96F
LEBANON        RAIN      66  64  94 SE3       29.98S
OSAGE BEACH    CLOUDY    66  64  94 CALM      29.96S
SPRINGFIELD    CLOUDY    66  64  93 SE6       29.96S
BRANSON        LGT RAIN  64  64 100 CALM      29.97R
NEVADA         CLOUDY    64  64 100 CALM      29.97F
JOPLIN         CLOUDY    64  63  96 CALM      29.97F
WEST PLAINS    RAIN      65  64  97 CALM      30.00R FOG
MALDEN         MOCLDY    73  70  88 SE8       29.97F

$$

IAZ060-094-KSZ022-034>040-054-083-096-NEZ052-066-093-300800-
...KANSAS...SOUTHEAST NEBRASKA AND IOWA...

CITY           SKY/WX    TMP DP  RH WIND       PRES   REMARKS
TOPEKA         CLOUDY    63  61  93 MISG      29.99S
MANHATTAN      CLOUDY    59  55  87 N9G18     30.05R
EMPORIA        CLOUDY    60  58  92 NW7       30.01R
CHANUTE        FOG       64  62  93 CALM      29.98S VSB 3/4
WICHITA        MOCLDY    62  55  77 N15G26    30.06R
OMAHA          CLOUDY    53  49  86 N16       30.08R
LINCOLN        CLOUDY    54  48  80 N20G25    30.12F
FALLS CITY     CLOUDY    58  56  93 N14G22    29.99F
LAMONI         LGT RAIN  66  61  84 N6        29.97F
DES MOINES     CLOUDY    60  57  89 N12       29.97F

$$




USA.gov is the U.S. government's official web portal to all federal, state and local government web resources and services.